Location: Esterri de Aneo
(42.6284°N, 1.1223°E)
Time: 17:36:16
(UTC+00:00)

YAOGAN 1 - Pass Details

Date: 11 December 2025
Orbit: 605 x 607 km, 97.8° (Epoch: 22 January)

Event Time Altitude Azimuth Distance (km) Brightness Sun altitude
Rises 18:27:13 0° 169° (S) 2,851 6.0 -22.2°
Reaches altitude 10° 18:29:23 10° 171° (S) 1,952 5.1 -22.6°
Maximum altitude 18:33:38 78° 257° (WSW) 626 2.6 -23.3°
Drops below altitude 10° 18:37:55 10° 345° (NNW) 1,968 5.2 -24.1°
Sets 18:40:07 0° 347° (NNW) 2,877 6.0 -24.5°
